• Join FlightAware (Why Join?)
  • Login
  • US Flag 
09:00PM EDT


 

Airport Tracker/Info


-or-


 

Live Flight TrackerFlight Track Log ✈ TAM3049 ✈ 19-May-2013 ✈ SBSP / CGH - SBPA / POA

Flight Track Log - Related Links

Times and Time Zones

All times are in EDT time to prevent confusion due to time zone crossing. See the TAM3049 flight status page for this flight to view local times or setup timezone preferences in your user account.

Time Position Orientation Groundspeed Altitude Reporting Facility
EDT Latitude Longitude Course Direction KTS MPH feet Rate Location/Type
09:05PM -23.6490 -46.6420 180° South 164 189 3,500  Level FlightAware
09:06PM -23.6690 -46.6550 211° Southwest 203 234 3,800 900 Climbing FlightAware
09:06PM -23.6730 -46.6690 253° West 211 243 4,200 2,400 Climbing FlightAware
09:06PM -23.6770 -46.6970 261° West 203 234 5,400 2,220 Climbing FlightAware
09:07PM -23.6800 -46.7100 256° West 202 232 5,700 600 Climbing FlightAware
09:07PM -23.6840 -46.7270 256° West 218 251 5,700  Level FlightAware
09:07PM -23.6930 -46.7400 233° Southwest 235 270 5,700 1,020 Level FlightAware
09:08PM -23.7130 -46.7650 229° Southwest 266 306 6,400 1,800 Climbing FlightAware
09:08PM -23.7250 -46.7790 227° Southwest 273 314 6,900 2,520 Climbing FlightAware
09:08PM -23.7490 -46.8050 225° Southwest 276 318 8,100 2,580 Climbing FlightAware
09:09PM -23.7790 -46.8320 219° Southwest 285 328 9,300 2,100 Climbing FlightAware
09:09PM -23.8220 -46.8690 218° Southwest 310 357 10,600 1,740 Climbing FlightAware
09:10PM -23.8740 -46.9150 219° Southwest 337 388 11,800 2,040 Climbing FlightAware
09:11PM -23.9230 -46.9590 219° Southwest 340 391 13,500 2,760 Climbing FlightAware
09:11PM -23.9710 -47.0010 219° Southwest 329 379 15,500 2,880 Climbing FlightAware
09:12PM -24.0240 -47.0480 219° Southwest 317 365 17,600 2,160 Climbing FlightAware
09:13PM -24.0710 -47.0900 219° Southwest 328 377 18,600 1,380 Climbing FlightAware
09:14PM -24.1230 -47.1370 220° Southwest 343 395 19,600 960 Climbing FlightAware
09:14PM -24.1750 -47.1830 219° Southwest 370 426 20,000 1,080 Climbing FlightAware
09:15PM -24.2320 -47.2390 222° Southwest 375 432 21,200 1,680 Climbing FlightAware
09:16PM -24.2850 -47.2920 222° Southwest 373 429 22,400 1,680 Climbing FlightAware
09:16PM -24.3370 -47.3430 222° Southwest 374 430 23,500 1,260 Climbing FlightAware
09:19PM -24.5128 -47.4554 210° Southwest  Level Estimated
09:20PM -24.5951 -47.5083 210° Southwest  Level Estimated
09:20PM -24.5920 -47.5920 210° Southwest 392 451 27,400  Level FlightAware
09:21PM -24.6930 -47.6920 222° Southwest 379 436 29,500 1,800 Climbing FlightAware
09:22PM -24.7850 -47.7820 222° Southwest 355 409 31,800 1,680 Climbing FlightAware
09:23PM -24.8800 -47.8770 222° Southwest 345 397 33,800 840 Climbing FlightAware
09:25PM -24.9650 -47.9620 222° Southwest 368 423 34,000 60 Climbing FlightAware
09:26PM -25.0550 -48.0510 222° Southwest 370 426 34,000  Level FlightAware
09:27PM -25.1520 -48.1470 222° Southwest 375 432 34,000  Level FlightAware
09:28PM -25.2490 -48.2440 222° Southwest 374 430 34,000  Level FlightAware
09:29PM -25.3380 -48.3330 222° Southwest 374 430 34,000  Level FlightAware
09:30PM -25.4080 -48.4030 222° Southwest 375 432 34,000  Level FlightAware
09:31PM -25.4590 -48.4540 222° Southwest 377 434 34,000  Level FlightAware
09:32PM -25.5120 -48.5070 222° Southwest 370 426 34,000  Level FlightAware
09:32PM -25.5700 -48.5620 221° Southwest 370 426 34,000  Level FlightAware
09:33PM -25.6250 -48.6100 218° Southwest 374 430 34,000  Level FlightAware
09:34PM -25.6850 -48.6630 219° Southwest 377 434 34,000 60 Level FlightAware
09:34PM -25.7400 -48.7120 219° Southwest 379 436 34,100  Climbing FlightAware
09:35PM -25.7990 -48.7650 219° Southwest 377 434 34,000 -120 Descending FlightAware
09:36PM -25.8480 -48.8080 218° Southwest 379 436 34,000  Level FlightAware
09:36PM -25.9030 -48.8570 219° Southwest 379 436 34,000  Level FlightAware
09:37PM -25.9680 -48.9150 219° Southwest 373 429 34,000  Level FlightAware
09:38PM -26.0260 -48.9680 219° Southwest 373 429 34,000  Level FlightAware
09:39PM -26.0840 -49.0200 219° Southwest 373 429 34,000  Level FlightAware
09:39PM -26.1340 -49.0650 219° Southwest 374 430 34,000  Level FlightAware
09:40PM -26.1890 -49.1150 219° Southwest 374 430 34,000  Level FlightAware
09:41PM -26.2440 -49.1640 219° Southwest 375 432 34,000  Level FlightAware
09:41PM -26.2950 -49.2100 219° Southwest 375 432 34,000  Level FlightAware
09:42PM -26.3600 -49.2690 219° Southwest 381 438 34,000  Level FlightAware
09:43PM -26.4220 -49.3250 219° Southwest 381 438 34,000  Level FlightAware
09:43PM -26.4780 -49.3750 219° Southwest 381 438 34,000  Level FlightAware
09:44PM -26.5310 -49.4230 219° Southwest 378 435 34,000  Level FlightAware
09:45PM -26.5960 -49.4820 219° Southwest 378 435 34,000  Level FlightAware
09:46PM -26.6490 -49.5300 219° Southwest 378 435 34,000  Level FlightAware
09:46PM -26.7070 -49.5830 219° Southwest 381 438 34,000  Level FlightAware
09:47PM -26.7640 -49.6250 213° Southwest 388 447 34,000  Level FlightAware
09:48PM -26.8400 -49.6640 205° Southwest 399 459 34,000  Level FlightAware
09:48PM -26.9120 -49.6910 198° South 397 457 34,000  Level FlightAware
09:49PM -26.9820 -49.7180 199° South 395 455 34,000  Level FlightAware
09:50PM -27.0570 -49.7470 199° South 393 452 34,000  Level FlightAware
09:50PM -27.1300 -49.7750 199° South 392 451 34,000  Level FlightAware
09:51PM -27.2040 -49.8040 199° South 394 453 34,000  Level FlightAware
09:52PM -27.2760 -49.8320 199° South 401 461 34,000  Level FlightAware
09:53PM -27.3440 -49.8580 199° South 406 467 34,000  Level FlightAware
09:53PM -27.4180 -49.8870 199° South 408 470 34,000  Level FlightAware
09:54PM -27.4990 -49.9190 199° South 410 472 34,000  Level FlightAware
09:55PM -27.5790 -49.9500 199° South 410 472 34,000  Level FlightAware
09:55PM -27.6490 -49.9770 199° South 408 470 34,000  Level FlightAware
09:56PM -27.7230 -50.0060 199° South 404 465 34,000  Level FlightAware
09:57PM -27.8020 -50.0370 199° South 403 464 34,000  Level FlightAware
09:57PM -27.8790 -50.0560 192° South 419 482 34,000  Level FlightAware
09:58PM -27.9670 -50.0500 177° South 434 499 34,000  Level FlightAware
09:59PM -28.0460 -50.0440 176° South 436 502 34,000  Level FlightAware
10:00PM -28.1320 -50.0360 175° South 440 506 34,000  Level FlightAware
10:00PM -28.2160 -49.9930 156° South 476 548 34,000  Level FlightAware
10:01PM -28.2920 -49.9150 138° Southeast 487 560 34,000  Level FlightAware
10:02PM -28.3550 -49.8460 136° Southeast 494 568 34,000  Level FlightAware
10:02PM -28.4310 -49.7840 144° Southeast 475 547 34,000 60 Level FlightAware
10:03PM -28.5080 -49.7670 169° South 445 512 34,100  Climbing FlightAware
10:04PM -28.5910 -49.7890 193° South 416 479 34,000 -120 Descending FlightAware
10:05PM -28.6610 -49.8540 219° Southwest 397 457 34,000  Level FlightAware
10:05PM -28.7020 -49.9230 236° Southwest 394 453 34,000  Level FlightAware
10:06PM -28.7480 -50.0000 236° Southwest 398 458 34,000 -120 Level FlightAware
10:07PM -28.7880 -50.0670 236° Southwest 401 461 33,900 -540 Descending FlightAware
10:07PM -28.8310 -50.1400 236° Southwest 406 467 33,300 -1,020 Descending FlightAware
10:08PM -28.8720 -50.2090 236° Southwest 408 470 32,600 -1,740 Descending FlightAware
10:09PM -28.9210 -50.2920 236° Southwest 404 465 30,900 -2,340 Descending FlightAware
10:09PM -28.9670 -50.3700 236° Southwest 395 455 29,100 -2,340 Descending FlightAware
10:10PM -29.0070 -50.4380 236° Southwest 386 444 27,600 -2,280 Descending FlightAware
10:11PM -29.0470 -50.5050 236° Southwest 381 438 26,100 -2,340 Descending FlightAware
10:12PM -29.0920 -50.5810 236° Southwest 376 433 24,300 -2,340 Descending FlightAware
10:12PM -29.1250 -50.6370 236° Southwest 374 430 23,000 -2,100 Descending FlightAware
10:13PM -29.1710 -50.7190 237° Southwest 360 414 21,400 -1,980 Descending FlightAware
10:14PM -29.2070 -50.7830 237° Southwest 347 399 20,100 -1,920 Descending FlightAware
10:14PM -29.2410 -50.8430 237° Southwest 334 384 18,900 -1,860 Descending FlightAware
10:15PM -29.2780 -50.9090 237° Southwest 321 369 17,500 -1,800 Descending FlightAware
10:16PM -29.3100 -50.9660 237° Southwest 309 356 16,400 -1,680 Descending FlightAware
10:16PM -29.3430 -51.0260 238° Southwest 299 344 15,200 -1,560 Descending FlightAware
10:17PM -29.3730 -51.0790 237° Southwest 297 342 14,200 -1,620 Descending FlightAware
10:18PM -29.4020 -51.1300 237° Southwest 294 338 13,100 -1,620 Descending FlightAware
10:18PM -29.4310 -51.1830 238° Southwest 291 335 12,100 -1,560 Descending FlightAware
10:19PM -29.4650 -51.2430 237° Southwest 287 330 10,900 -1,440 Descending FlightAware
10:20PM -29.4950 -51.2680 216° Southwest 298 343 10,300 -1,080 Descending FlightAware
10:20PM -29.5490 -51.2810 192° South 279 321 9,700 -1,140 Descending FlightAware
10:21PM -29.5860 -51.2910 193° South 274 315 9,000 -1,440 Descending FlightAware
10:21PM -29.6160 -51.3000 195° South 272 313 8,400 -1,440 Descending FlightAware
10:22PM -29.6520 -51.3090 192° South 268 308 7,700 -1,440 Descending FlightAware
10:22PM -29.6890 -51.3190 193° South 264 304 7,000 -1,320 Descending FlightAware
10:23PM -29.7190 -51.3270 193° South 261 300 6,500 -1,080 Descending FlightAware
10:23PM -29.7350 -51.3310 192° South 252 290 6,300 -840 Descending FlightAware
10:23PM -29.7680 -51.3400 193° South 235 270 5,900 -1,020 Descending FlightAware
10:24PM -29.7960 -51.3480 194° South 233 268 5,400 -1,200 Descending FlightAware
10:24PM -29.8280 -51.3560 192° South 232 267 4,800 -1,200 Descending FlightAware
10:25PM -29.8420 -51.3600 194° South 229 264 4,500 -1,200 Descending FlightAware
10:25PM -29.8690 -51.3680 194° South 230 265 4,000 -1,200 Descending FlightAware
10:26PM -29.8980 -51.3840 206° Southwest 231 266 3,400 -1,140 Descending FlightAware
10:26PM -29.9190 -51.3980 210° Southwest 229 264 3,000 -1,020 Descending FlightAware
10:26PM -29.9440 -51.4150 211° Southwest 223 257 2,500 -1,140 Descending FlightAware
10:27PM -29.9710 -51.4290 204° Southwest 220 253 2,000 -660 Descending FlightAware
10:27PM -29.9920 -51.4070 138° Southeast 218 251 1,900 -120 Descending FlightAware
10:28PM -29.9910 -51.3800 88° East 218 251 1,900  Level FlightAware
10:28PM -29.9870 -51.4210 276° West 217 250 1,900  Level FlightAware
10:29PM -29.9920 -51.3130 93° East 194 223 1,900 -120 Level FlightAware
10:29PM -29.9920 -51.2930 90° East 171 197 1,800 -720 Descending FlightAware
10:30PM -29.9930 -51.2720 93° East 153 176 1,400 -840 Descending FlightAware
10:30PM -29.9930 -51.2410 90° East 146 168 900 -720 Descending FlightAware
10:31PM -29.9940 -51.2160 93° East 139 160 500 -780 Descending FlightAware
10:31PM -29.9940 -51.1990 90° East 140 161 200 -900 Descending FlightAware
10:32PM -29.9940 -51.1800 90° East 137 158 -480 Descending FlightAware